Time,TemperatureF,DewpointF,PressureIn,WindDirection,WindDirectionDegrees,WindSpeedMPH,WindSpeedGustMPH,Humidity,HourlyPrecipIn,Conditions,Clouds,dailyrainin,SolarRadiationWatts/m^2,SoftwareType,DateUTC
2013-02-17 00:00:00,30.8,20.8,30.24,West,277,1.0,3.0,66,0.00,,,0.00,0.00,VWS V14.01,2013-02-17 06:00:00,
2013-02-17 00:05:00,30.9,20.9,30.24,SW,232,0.0,3.0,66,0.00,,,0.00,0.00,VWS V14.01,2013-02-17 06:05:00,
2013-02-17 00:10:00,31.0,21.0,30.24,SW,232,0.0,0.0,66,0.00,,,0.00,0.00,VWS V14.01,2013-02-17 06:10:00,
2013-02-17 00:15:00,31.0,21.0,30.24,SW,232,0.0,3.0,66,0.00,,,0.00,0.00,VWS V14.01,2013-02-17 06:15:00,
2013-02-17 00:20:00,31.0,20.6,30.24,SW,232,0.0,0.0,65,0.00,,,0.00,0.00,VWS V14.01,2013-02-17 06:20:00,
2013-02-17 00:25:00,31.0,21.0,30.24,SW,232,2.0,3.0,66,0.00,,,0.00,0.00,VWS V14.01,2013-02-17 06:25:00,
2013-02-17 00:30:00,31.0,21.0,30.23,SW,232,0.0,1.0,66,0.00,,,0.00,0.00,VWS V14.01,2013-02-17 06:30:00,
2013-02-17 00:35:00,30.9,20.9,30.23,SW,232,0.0,3.0,66,0.00,,,0.00,0.00,VWS V14.01,2013-02-17 06:35:00,
2013-02-17 00:40:00,30.9,20.9,30.23,SW,221,0.0,4.0,66,0.00,,,0.00,0.00,VWS V14.01,2013-02-17 06:40:00,
2013-02-17 00:45:00,31.0,21.0,30.23,SW,221,1.0,4.0,66,0.00,,,0.00,0.00,VWS V14.01,2013-02-17 06:45:00,
2013-02-17 00:50:00,31.0,21.0,30.23,SW,221,0.0,1.0,66,0.00,,,0.00,0.00,VWS V14.01,2013-02-17 06:50:00,
2013-02-17 00:55:00,31.0,21.0,30.23,SW,221,0.0,1.0,66,0.00,,,0.00,0.00,VWS V14.01,2013-02-17 06:55:00,
2013-02-17 01:00:00,31.0,21.3,30.23,SW,221,2.0,2.0,67,0.00,,,0.00,0.00,VWS V14.01,2013-02-17 07:00:00,
2013-02-17 01:05:00,31.0,21.0,30.23,SW,221,2.0,3.0,66,0.00,,,0.00,0.00,VWS V14.01,2013-02-17 07:05:00,
2013-02-17 01:10:00,31.0,21.0,30.23,SW,221,0.0,0.0,66,0.00,,,0.00,0.00,VWS V14.01,2013-02-17 07:10:00,
2013-02-17 01:15:00,31.0,21.0,30.23,SW,221,0.0,1.0,66,0.00,,,0.00,0.00,VWS V14.01,2013-02-17 07:15:00,
2013-02-17 01:20:00,31.0,21.0,30.23,SW,221,0.0,4.0,66,0.00,,,0.00,0.00,VWS V14.01,2013-02-17 07:20:00,
2013-02-17 01:25:00,31.1,21.1,30.23,SW,221,0.0,4.0,66,0.00,,,0.00,0.00,VWS V14.01,2013-02-17 07:25:00,
2013-02-17 01:30:00,31.1,21.1,30.23,SW,221,0.0,1.0,66,0.00,,,0.00,0.00,VWS V14.01,2013-02-17 07:30:00,
2013-02-17 01:35:00,31.2,21.2,30.23,SW,221,0.0,3.0,66,0.00,,,0.00,0.00,VWS V14.01,2013-02-17 07:35:00,
2013-02-17 01:40:00,31.2,21.2,30.23,SW,221,0.0,2.0,66,0.00,,,0.00,0.00,VWS V14.01,2013-02-17 07:40:00,
2013-02-17 01:45:00,31.2,20.8,30.23,SW,221,1.0,3.0,65,0.00,,,0.00,0.00,VWS V14.01,2013-02-17 07:45:00,
2013-02-17 01:50:00,31.3,20.9,30.22,SW,221,0.0,0.0,65,0.00,,,0.00,0.00,VWS V14.01,2013-02-17 07:50:00,
2013-02-17 01:55:00,31.3,20.9,30.23,SW,221,1.0,3.0,65,0.00,,,0.00,0.00,VWS V14.01,2013-02-17 07:55:00,
2013-02-17 02:00:00,31.4,21.0,30.22,SW,221,0.0,2.0,65,0.00,,,0.00,0.00,VWS V14.01,2013-02-17 08:00:00,
2013-02-17 02:05:00,31.4,20.6,30.23,South,191,2.0,4.0,64,0.00,,,0.00,0.00,VWS V14.01,2013-02-17 08:05:00,
2013-02-17 02:10:00,31.5,20.7,30.23,South,191,0.0,1.0,64,0.00,,,0.00,0.00,VWS V14.01,2013-02-17 08:10:00,
2013-02-17 02:15:00,31.5,20.7,30.23,SSW,192,0.0,3.0,64,0.00,,,0.00,0.00,VWS V14.01,2013-02-17 08:15:00,
2013-02-17 02:20:00,31.6,20.8,30.23,SW,215,0.0,3.0,64,0.00,,,0.00,0.00,VWS V14.01,2013-02-17 08:20:00,
2013-02-17 02:25:00,31.7,20.6,30.23,SSW,203,2.0,5.0,63,0.00,,,0.00,0.00,VWS V14.01,2013-02-17 08:25:00,
2013-02-17 02:30:00,31.7,20.6,30.23,SSW,211,2.0,3.0,63,0.00,,,0.00,0.00,VWS V14.01,2013-02-17 08:30:00,
2013-02-17 02:35:00,31.8,20.7,30.23,SW,219,1.0,4.0,63,0.00,,,0.00,0.00,VWS V14.01,2013-02-17 08:35:00,
2013-02-17 02:40:00,31.8,20.7,30.23,SSE,167,1.0,3.0,63,0.00,,,0.00,0.00,VWS V14.01,2013-02-17 08:40:00,
2013-02-17 02:45:00,31.8,21.0,30.23,South,190,2.0,5.0,64,0.00,,,0.00,0.00,VWS V14.01,2013-02-17 08:45:00,
2013-02-17 02:50:00,31.9,21.1,30.23,SW,214,2.0,4.0,64,0.00,,,0.00,0.00,VWS V14.01,2013-02-17 08:50:00,
2013-02-17 02:55:00,31.9,21.1,30.23,SW,216,1.0,4.0,64,0.00,,,0.00,0.00,VWS V14.01,2013-02-17 08:55:00,
2013-02-17 03:00:00,31.9,21.1,30.23,SW,216,0.0,2.0,64,0.00,,,0.00,0.00,VWS V14.01,2013-02-17 09:00:00,
2013-02-17 03:05:00,31.9,21.1,30.23,SW,216,2.0,3.0,64,0.00,,,0.00,0.00,VWS V14.01,2013-02-17 09:05:00,
2013-02-17 03:10:00,31.9,21.1,30.23,South,190,1.0,4.0,64,0.00,,,0.00,0.00,VWS V14.01,2013-02-17 09:10:00,
2013-02-17 03:15:00,31.9,21.1,30.22,South,183,2.0,5.0,64,0.00,,,0.00,0.00,VWS V14.01,2013-02-17 09:15:00,
2013-02-17 03:20:00,31.9,21.1,30.22,South,175,3.0,3.0,64,0.00,,,0.00,0.00,VWS V14.01,2013-02-17 09:20:00,
2013-02-17 03:25:00,31.9,21.1,30.22,South,180,4.0,6.0,64,0.00,,,0.00,0.00,VWS V14.01,2013-02-17 09:25:00,
2013-02-17 03:30:00,31.9,21.1,30.22,South,180,0.0,0.0,64,0.00,,,0.00,0.00,VWS V14.01,2013-02-17 09:30:00,
2013-02-17 03:35:00,31.9,21.1,30.22,South,180,2.0,3.0,64,0.00,,,0.00,0.00,VWS V14.01,2013-02-17 09:35:00,
2013-02-17 03:40:00,31.9,21.5,30.21,South,186,0.0,1.0,65,0.00,,,0.00,0.00,VWS V14.01,2013-02-17 09:40:00,
2013-02-17 03:45:00,31.9,21.5,30.22,South,176,2.0,4.0,65,0.00,,,0.00,0.00,VWS V14.01,2013-02-17 09:45:00,
2013-02-17 03:50:00,31.9,21.1,30.22,SSW,192,1.0,2.0,64,0.00,,,0.00,0.00,VWS V14.01,2013-02-17 09:50:00,
2013-02-17 03:55:00,32.0,21.2,30.22,South,191,3.0,4.0,64,0.00,,,0.00,0.00,VWS V14.01,2013-02-17 09:55:00,
2013-02-17 04:00:00,32.0,20.9,30.22,South,188,1.0,1.0,63,0.00,,,0.00,0.00,VWS V14.01,2013-02-17 10:00:00,
2013-02-17 04:05:00,32.0,21.2,30.22,South,188,2.0,3.0,64,0.00,,,0.00,0.00,VWS V14.01,2013-02-17 10:05:00,
2013-02-17 04:10:00,32.1,21.3,30.22,South,185,1.0,4.0,64,0.00,,,0.00,0.00,VWS V14.01,2013-02-17 10:10:00,
2013-02-17 04:15:00,32.1,21.3,30.22,South,184,1.0,4.0,64,0.00,,,0.00,0.00,VWS V14.01,2013-02-17 10:15:00,
2013-02-17 04:20:00,32.1,21.3,30.22,South,184,0.0,1.0,64,0.00,,,0.00,0.00,VWS V14.01,2013-02-17 10:20:00,
2013-02-17 04:25:00,32.1,21.3,30.22,South,187,1.0,6.0,64,0.00,,,0.00,0.00,VWS V14.01,2013-02-17 10:25:00,
2013-02-17 04:30:00,32.1,21.3,30.22,SSW,203,2.0,4.0,64,0.00,,,0.00,0.00,VWS V14.01,2013-02-17 10:30:00,
2013-02-17 04:35:00,32.2,21.0,30.22,South,190,3.0,7.0,63,0.00,,,0.00,0.00,VWS V14.01,2013-02-17 10:35:00,
2013-02-17 04:40:00,32.3,21.1,30.23,South,175,3.0,3.0,63,0.00,,,0.00,0.00,VWS V14.01,2013-02-17 10:40:00,
2013-02-17 04:45:00,32.4,21.2,30.23,South,190,1.0,4.0,63,0.00,,,0.00,0.00,VWS V14.01,2013-02-17 10:45:00,
2013-02-17 04:50:00,32.4,21.2,30.23,SSW,202,3.0,4.0,63,0.00,,,0.00,0.00,VWS V14.01,2013-02-17 10:50:00,
2013-02-17 04:55:00,32.4,21.2,30.23,SSW,195,1.0,5.0,63,0.00,,,0.00,0.00,VWS V14.01,2013-02-17 10:55:00,
2013-02-17 05:00:00,32.4,21.6,30.23,SSW,194,1.0,2.0,64,0.00,,,0.00,0.00,VWS V14.01,2013-02-17 11:00:00,
2013-02-17 05:05:00,32.4,21.2,30.23,SSW,202,1.0,6.0,63,0.00,,,0.00,0.00,VWS V14.01,2013-02-17 11:05:00,
2013-02-17 05:10:00,32.5,21.7,30.24,SSW,202,3.0,3.0,64,0.00,,,0.00,0.00,VWS V14.01,2013-02-17 11:10:00,
2013-02-17 05:15:00,32.5,21.3,30.24,SSW,198,1.0,4.0,63,0.00,,,0.00,0.00,VWS V14.01,2013-02-17 11:15:00,
2013-02-17 05:20:00,32.5,21.7,30.23,SSW,198,0.0,2.0,64,0.00,,,0.00,0.00,VWS V14.01,2013-02-17 11:20:00,
2013-02-17 05:25:00,32.5,21.7,30.24,South,178,1.0,6.0,64,0.00,,,0.00,0.00,VWS V14.01,2013-02-17 11:25:00,
2013-02-17 05:30:00,32.6,21.8,30.23,South,184,2.0,6.0,64,0.00,,,0.00,0.00,VWS V14.01,2013-02-17 11:30:00,
2013-02-17 05:35:00,32.6,21.8,30.23,South,188,4.0,6.0,64,0.00,,,0.00,0.00,VWS V14.01,2013-02-17 11:35:00,
2013-02-17 05:40:00,32.6,21.8,30.24,SSE,164,1.0,4.0,64,0.00,,,0.00,0.00,VWS V14.01,2013-02-17 11:40:00,
2013-02-17 05:45:00,32.6,21.8,30.24,South,182,1.0,4.0,64,0.00,,,0.00,0.00,VWS V14.01,2013-02-17 11:45:00,
2013-02-17 05:50:00,32.6,21.8,30.24,South,182,4.0,5.0,64,0.00,,,0.00,0.00,VWS V14.01,2013-02-17 11:50:00,
2013-02-17 05:55:00,32.6,21.8,30.24,South,177,0.0,7.0,64,0.00,,,0.00,0.00,VWS V14.01,2013-02-17 11:55:00,
2013-02-17 06:00:00,32.6,21.8,30.24,South,176,0.0,3.0,64,0.00,,,0.00,0.00,VWS V14.01,2013-02-17 12:00:00,
2013-02-17 06:05:00,32.6,21.8,30.24,South,175,2.0,5.0,64,0.00,,,0.00,0.00,VWS V14.01,2013-02-17 12:05:00,
2013-02-17 06:10:00,32.6,21.8,30.23,SSW,195,4.0,4.0,64,0.00,,,0.00,0.00,VWS V14.01,2013-02-17 12:10:00,
2013-02-17 06:15:00,32.6,22.1,30.23,South,178,1.0,6.0,65,0.00,,,0.00,0.00,VWS V14.01,2013-02-17 12:15:00,
2013-02-17 06:20:00,32.5,22.4,30.24,South,180,0.0,3.0,66,0.00,,,0.00,0.00,VWS V14.01,2013-02-17 12:20:00,
2013-02-17 06:25:00,32.5,22.4,30.24,SSE,167,2.0,5.0,66,0.00,,,0.00,0.00,VWS V14.01,2013-02-17 12:25:00,
2013-02-17 06:30:00,32.6,22.1,30.24,South,189,2.0,5.0,65,0.00,,,0.00,0.00,VWS V14.01,2013-02-17 12:30:00,
2013-02-17 06:35:00,32.6,22.1,30.23,South,179,1.0,7.0,65,0.00,,,0.00,0.00,VWS V14.01,2013-02-17 12:35:00,
2013-02-17 06:40:00,32.7,22.6,30.23,South,191,1.0,2.0,66,0.00,,,0.00,0.00,VWS V14.01,2013-02-17 12:40:00,
2013-02-17 06:45:00,32.7,22.6,30.23,SSW,200,2.0,6.0,66,0.00,,,0.00,0.00,VWS V14.01,2013-02-17 12:45:00,
2013-02-17 06:50:00,32.6,22.9,30.24,South,170,1.0,5.0,67,0.00,,,0.00,0.00,VWS V14.01,2013-02-17 12:50:00,
2013-02-17 06:55:00,32.6,22.9,30.24,SSE,168,1.0,5.0,67,0.00,,,0.00,5.00,VWS V14.01,2013-02-17 12:55:00,
2013-02-17 07:00:00,32.6,22.9,30.23,South,175,2.0,3.0,67,0.00,,,0.00,7.00,VWS V14.01,2013-02-17 13:00:00,
2013-02-17 07:05:00,32.6,22.9,30.23,South,172,6.0,6.0,67,0.00,,,0.00,9.00,VWS V14.01,2013-02-17 13:05:00,
2013-02-17 07:10:00,32.6,22.9,30.23,SSE,167,2.0,4.0,67,0.00,,,0.00,11.00,VWS V14.01,2013-02-17 13:10:00,
2013-02-17 07:15:00,32.7,23.0,30.24,SSW,192,2.0,8.0,67,0.00,,,0.00,14.00,VWS V14.01,2013-02-17 13:15:00,
2013-02-17 07:20:00,32.8,23.1,30.25,SW,236,0.0,2.0,67,0.00,,,0.00,21.00,VWS V14.01,2013-02-17 13:20:00,
2013-02-17 07:25:00,32.9,22.8,30.25,SW,217,5.0,7.0,66,0.00,,,0.00,30.00,VWS V14.01,2013-02-17 13:25:00,
2013-02-17 07:30:00,33.0,22.9,30.24,SSW,196,3.0,5.0,66,0.00,,,0.00,39.00,VWS V14.01,2013-02-17 13:30:00,
2013-02-17 07:35:00,33.1,23.0,30.25,SSE,164,3.0,7.0,66,0.00,,,0.00,47.00,VWS V14.01,2013-02-17 13:35:00,
2013-02-17 07:40:00,33.2,23.1,30.25,SSW,195,5.0,5.0,66,0.00,,,0.00,56.00,VWS V14.01,2013-02-17 13:40:00,
2013-02-17 07:45:00,33.4,23.3,30.25,South,187,3.0,5.0,66,0.00,,,0.00,62.00,VWS V14.01,2013-02-17 13:45:00,
2013-02-17 07:50:00,33.6,23.1,30.25,SSE,159,1.0,4.0,65,0.00,,,0.00,70.00,VWS V14.01,2013-02-17 13:50:00,
2013-02-17 07:55:00,33.8,22.9,30.25,SSW,196,3.0,10.0,64,0.00,,,0.00,77.00,VWS V14.01,2013-02-17 13:55:00,
2013-02-17 08:00:00,33.9,23.0,30.25,SW,234,7.0,7.0,64,0.00,,,0.00,81.00,VWS V14.01,2013-02-17 14:00:00,
2013-02-17 08:05:00,34.2,23.3,30.25,South,191,6.0,7.0,64,0.00,,,0.00,88.00,VWS V14.01,2013-02-17 14:05:00,
2013-02-17 08:10:00,34.4,23.1,30.26,SW,215,3.0,4.0,63,0.00,,,0.00,95.00,VWS V14.01,2013-02-17 14:10:00,
2013-02-17 08:15:00,34.4,23.1,30.26,SW,216,3.0,7.0,63,0.00,,,0.00,98.00,VWS V14.01,2013-02-17 14:15:00,
2013-02-17 08:20:00,34.7,23.0,30.26,South,184,6.0,9.0,62,0.00,,,0.00,104.00,VWS V14.01,2013-02-17 14:20:00,
2013-02-17 08:25:00,35.0,23.3,30.26,SSW,200,2.0,9.0,62,0.00,,,0.00,113.00,VWS V14.01,2013-02-17 14:25:00,
2013-02-17 08:30:00,35.2,23.1,30.26,SSE,167,1.0,3.0,61,0.00,,,0.00,134.00,VWS V14.01,2013-02-17 14:30:00,
2013-02-17 08:35:00,35.5,23.4,30.26,SW,221,5.0,8.0,61,0.00,,,0.00,158.00,VWS V14.01,2013-02-17 14:35:00,
2013-02-17 08:40:00,35.7,23.2,30.26,SSW,208,1.0,2.0,60,0.00,,,0.00,167.00,VWS V14.01,2013-02-17 14:40:00,
2013-02-17 08:45:00,36.0,23.1,30.26,South,179,4.0,9.0,59,0.00,,,0.00,211.00,VWS V14.01,2013-02-17 14:45:00,
2013-02-17 08:50:00,36.3,23.4,30.26,SSW,192,3.0,6.0,59,0.00,,,0.00,186.00,VWS V14.01,2013-02-17 14:50:00,
2013-02-17 08:55:00,36.4,23.0,30.26,South,173,2.0,10.0,58,0.00,,,0.00,223.00,VWS V14.01,2013-02-17 14:55:00,
2013-02-17 09:00:00,37.0,23.6,30.26,South,171,4.0,4.0,58,0.00,,,0.00,246.00,VWS V14.01,2013-02-17 15:00:00,
2013-02-17 09:05:00,37.6,23.8,30.26,SSE,150,3.0,8.0,57,0.00,,,0.00,258.00,VWS V14.01,2013-02-17 15:05:00,
2013-02-17 09:10:00,38.1,23.8,30.26,South,176,1.0,4.0,56,0.00,,,0.00,246.00,VWS V14.01,2013-02-17 15:10:00,
2013-02-17 09:15:00,38.4,24.1,30.26,South,180,0.0,7.0,56,0.00,,,0.00,227.00,VWS V14.01,2013-02-17 15:15:00,
2013-02-17 09:20:00,38.5,23.8,30.26,South,178,4.0,4.0,55,0.00,,,0.00,234.00,VWS V14.01,2013-02-17 15:20:00,
2013-02-17 09:25:00,38.7,23.9,30.26,SSW,205,4.0,8.0,55,0.00,,,0.00,271.00,VWS V14.01,2013-02-17 15:25:00,
2013-02-17 09:30:00,39.2,24.0,30.26,SSE,168,4.0,4.0,54,0.00,,,0.00,262.00,VWS V14.01,2013-02-17 15:30:00,
2013-02-17 09:35:00,39.4,24.1,30.26,South,180,3.0,6.0,54,0.00,,,0.00,262.00,VWS V14.01,2013-02-17 15:35:00,
2013-02-17 09:40:00,40.2,24.9,30.26,SSE,151,6.0,6.0,54,0.00,,,0.00,269.00,VWS V14.01,2013-02-17 15:40:00,
2013-02-17 09:45:00,40.6,23.9,30.26,SSW,205,7.0,8.0,51,0.00,,,0.00,359.00,VWS V14.01,2013-02-17 15:45:00,
2013-02-17 09:50:00,41.4,23.7,30.26,SSW,203,6.0,6.0,49,0.00,,,0.00,596.00,VWS V14.01,2013-02-17 15:50:00,
2013-02-17 09:55:00,41.8,23.6,30.26,South,186,10.0,11.0,48,0.00,,,0.00,638.00,VWS V14.01,2013-02-17 15:55:00,
2013-02-17 10:00:00,41.9,23.7,30.26,South,177,5.0,7.0,48,0.00,,,0.00,608.00,VWS V14.01,2013-02-17 16:00:00,
2013-02-17 10:05:00,42.1,22.8,30.26,South,179,7.0,13.0,46,0.00,,,0.00,759.00,VWS V14.01,2013-02-17 16:05:00,
2013-02-17 10:10:00,42.4,23.6,30.25,WSW,250,4.0,6.0,47,0.00,,,0.00,478.00,VWS V14.01,2013-02-17 16:10:00,
2013-02-17 10:15:00,43.3,24.4,30.26,SW,215,3.0,8.0,47,0.00,,,0.00,445.00,VWS V14.01,2013-02-17 16:15:00,
2013-02-17 10:20:00,43.6,23.1,30.25,SSE,163,2.0,3.0,44,0.00,,,0.00,424.00,VWS V14.01,2013-02-17 16:20:00,
2013-02-17 10:25:00,43.2,23.8,30.26,South,169,3.0,13.0,46,0.00,,,0.00,446.00,VWS V14.01,2013-02-17 16:25:00,
2013-02-17 10:30:00,43.1,23.2,30.25,South,175,5.0,9.0,45,0.00,,,0.00,403.00,VWS V14.01,2013-02-17 16:30:00,
2013-02-17 10:35:00,43.1,23.7,30.26,SSW,208,1.0,10.0,46,0.00,,,0.00,522.00,VWS V14.01,2013-02-17 16:35:00,
2013-02-17 10:40:00,43.6,23.7,30.25,SSW,208,5.0,6.0,45,0.00,,,0.00,397.00,VWS V14.01,2013-02-17 16:40:00,
2013-02-17 10:45:00,43.9,24.0,30.25,South,173,5.0,10.0,45,0.00,,,0.00,478.00,VWS V14.01,2013-02-17 16:45:00,
2013-02-17 10:50:00,43.8,23.9,30.25,SSW,199,6.0,9.0,45,0.00,,,0.00,425.00,VWS V14.01,2013-02-17 16:50:00,
2013-02-17 10:55:00,43.9,24.0,30.25,SSW,202,3.0,10.0,45,0.00,,,0.00,422.00,VWS V14.01,2013-02-17 16:55:00,
2013-02-17 11:00:00,44.0,23.5,30.25,South,188,3.0,3.0,44,0.00,,,0.00,390.00,VWS V14.01,2013-02-17 17:00:00,
2013-02-17 11:05:00,44.1,23.6,30.25,South,185,10.0,13.0,44,0.00,,,0.00,501.00,VWS V14.01,2013-02-17 17:05:00,
2013-02-17 11:10:00,44.4,23.9,30.25,South,171,2.0,6.0,44,0.00,,,0.00,427.00,VWS V14.01,2013-02-17 17:10:00,
2013-02-17 11:15:00,45.2,24.0,30.24,WSW,246,5.0,10.0,43,0.00,,,0.00,712.00,VWS V14.01,2013-02-17 17:15:00,
2013-02-17 11:20:00,45.9,24.1,30.24,SW,217,4.0,8.0,42,0.00,,,0.00,719.00,VWS V14.01,2013-02-17 17:20:00,
2013-02-17 11:25:00,46.1,23.7,30.24,SSE,168,1.0,12.0,41,0.00,,,0.00,722.00,VWS V14.01,2013-02-17 17:25:00,
2013-02-17 11:30:00,46.4,24.6,30.23,SSW,192,1.0,3.0,42,0.00,,,0.00,728.00,VWS V14.01,2013-02-17 17:30:00,
2013-02-17 11:35:00,47.2,24.7,30.23,South,176,2.0,10.0,41,0.00,,,0.00,731.00,VWS V14.01,2013-02-17 17:35:00,
2013-02-17 11:40:00,47.4,24.9,30.22,South,191,0.0,3.0,41,0.00,,,0.00,735.00,VWS V14.01,2013-02-17 17:40:00,
2013-02-17 11:45:00,48.1,26.1,30.22,South,173,6.0,8.0,42,0.00,,,0.00,740.00,VWS V14.01,2013-02-17 17:45:00,
2013-02-17 11:50:00,48.4,26.4,30.22,SSE,161,4.0,4.0,42,0.00,,,0.00,742.00,VWS V14.01,2013-02-17 17:50:00,
2013-02-17 11:55:00,48.3,24.5,30.21,South,180,6.0,12.0,39,0.00,,,0.00,744.00,VWS V14.01,2013-02-17 17:55:00,
2013-02-17 12:00:00,48.5,24.7,30.21,South,187,3.0,4.0,39,0.00,,,0.00,745.00,VWS V14.01,2013-02-17 18:00:00,
2013-02-17 12:05:00,48.9,25.0,30.21,SSW,195,3.0,9.0,39,0.00,,,0.00,745.00,VWS V14.01,2013-02-17 18:05:00,
2013-02-17 12:10:00,49.2,25.3,30.21,SW,225,3.0,3.0,39,0.00,,,0.00,749.00,VWS V14.01,2013-02-17 18:10:00,
2013-02-17 12:15:00,49.6,25.0,30.20,South,190,5.0,9.0,38,0.00,,,0.00,751.00,VWS V14.01,2013-02-17 18:15:00,
2013-02-17 12:20:00,50.0,26.0,30.20,SSW,211,2.0,3.0,39,0.00,,,0.00,745.00,VWS V14.01,2013-02-17 18:20:00,
2013-02-17 12:25:00,50.6,26.6,30.20,SSW,211,2.0,9.0,39,0.00,,,0.00,749.00,VWS V14.01,2013-02-17 18:25:00,
2013-02-17 12:30:00,50.9,26.8,30.19,SSE,150,0.0,9.0,39,0.00,,,0.00,745.00,VWS V14.01,2013-02-17 18:30:00,
2013-02-17 12:35:00,50.8,26.1,30.19,SSE,165,8.0,10.0,38,0.00,,,0.00,744.00,VWS V14.01,2013-02-17 18:35:00,
2013-02-17 12:40:00,50.6,26.6,30.19,SSW,192,9.0,10.0,39,0.00,,,0.00,745.00,VWS V14.01,2013-02-17 18:40:00,
2013-02-17 12:45:00,51.0,26.9,30.18,South,179,11.0,11.0,39,0.00,,,0.00,740.00,VWS V14.01,2013-02-17 18:45:00,
2013-02-17 12:50:00,51.5,27.4,30.18,SSW,200,4.0,12.0,39,0.00,,,0.00,737.00,VWS V14.01,2013-02-17 18:50:00,
2013-02-17 12:55:00,52.1,27.9,30.18,SSW,204,2.0,9.0,39,0.00,,,0.00,733.00,VWS V14.01,2013-02-17 18:55:00,
2013-02-17 13:00:00,52.2,27.4,30.17,WSW,246,3.0,9.0,38,0.00,,,0.00,731.00,VWS V14.01,2013-02-17 19:00:00,
2013-02-17 13:05:00,52.4,27.6,30.17,WSW,255,1.0,9.0,38,0.00,,,0.00,729.00,VWS V14.01,2013-02-17 19:05:00,
2013-02-17 13:10:00,52.6,27.7,30.17,SSW,192,7.0,7.0,38,0.00,,,0.00,724.00,VWS V14.01,2013-02-17 19:10:00,
2013-02-17 13:15:00,53.0,28.1,30.16,West,264,1.0,9.0,38,0.00,,,0.00,719.00,VWS V14.01,2013-02-17 19:15:00,
2013-02-17 13:20:00,52.6,28.4,30.16,SSW,197,2.0,2.0,39,0.00,,,0.00,714.00,VWS V14.01,2013-02-17 19:20:00,
2013-02-17 13:25:00,52.6,27.7,30.16,SW,222,5.0,13.0,38,0.00,,,0.00,710.00,VWS V14.01,2013-02-17 19:25:00,
2013-02-17 13:30:00,52.8,28.5,30.15,SSE,168,4.0,5.0,39,0.00,,,0.00,701.00,VWS V14.01,2013-02-17 19:30:00,
2013-02-17 13:35:00,52.9,28.6,30.14,South,186,1.0,6.0,39,0.00,,,0.00,694.00,VWS V14.01,2013-02-17 19:35:00,
2013-02-17 13:40:00,53.2,28.3,30.14,SSW,212,2.0,12.0,38,0.00,,,0.00,682.00,VWS V14.01,2013-02-17 19:40:00,
2013-02-17 13:45:00,53.4,29.1,30.14,SSE,165,4.0,10.0,39,0.00,,,0.00,668.00,VWS V14.01,2013-02-17 19:45:00,
2013-02-17 13:50:00,53.0,28.7,30.14,SSW,211,4.0,13.0,39,0.00,,,0.00,661.00,VWS V14.01,2013-02-17 19:50:00,
2013-02-17 13:55:00,53.6,29.3,30.14,SW,234,0.0,7.0,39,0.00,,,0.00,652.00,VWS V14.01,2013-02-17 19:55:00,
2013-02-17 14:00:00,53.7,29.4,30.14,SW,225,6.0,15.0,39,0.00,,,0.00,649.00,VWS V14.01,2013-02-17 20:00:00,
2013-02-17 14:05:00,53.4,29.1,30.13,SSW,200,3.0,14.0,39,0.00,,,0.00,643.00,VWS V14.01,2013-02-17 20:05:00,
2013-02-17 14:10:00,53.2,28.9,30.13,SSW,213,2.0,14.0,39,0.00,,,0.00,635.00,VWS V14.01,2013-02-17 20:10:00,
2013-02-17 14:15:00,54.0,30.2,30.13,SE,136,3.0,9.0,40,0.00,,,0.00,626.00,VWS V14.01,2013-02-17 20:15:00,
2013-02-17 14:20:00,54.4,30.0,30.13,SE,134,3.0,9.0,39,0.00,,,0.00,617.00,VWS V14.01,2013-02-17 20:20:00,
2013-02-17 14:25:00,54.5,29.4,30.12,SSW,211,0.0,10.0,38,0.00,,,0.00,606.00,VWS V14.01,2013-02-17 20:25:00,
2013-02-17 14:30:00,54.3,29.2,30.12,SSE,164,5.0,10.0,38,0.00,,,0.00,596.00,VWS V14.01,2013-02-17 20:30:00,
2013-02-17 14:35:00,54.6,30.2,30.12,WNW,284,3.0,10.0,39,0.00,,,0.00,584.00,VWS V14.01,2013-02-17 20:35:00,
2013-02-17 14:40:00,54.7,29.6,30.12,SW,222,2.0,12.0,38,0.00,,,0.00,573.00,VWS V14.01,2013-02-17 20:40:00,
2013-02-17 14:45:00,54.6,29.5,30.12,SE,140,6.0,10.0,38,0.00,,,0.00,559.00,VWS V14.01,2013-02-17 20:45:00,
2013-02-17 14:50:00,54.6,30.2,30.12,SW,227,0.0,1.0,39,0.00,,,0.00,548.00,VWS V14.01,2013-02-17 20:50:00,
2013-02-17 14:55:00,55.1,30.0,30.12,South,186,8.0,10.0,38,0.00,,,0.00,534.00,VWS V14.01,2013-02-17 20:55:00,
2013-02-17 15:00:00,55.1,30.0,30.12,South,177,4.0,5.0,38,0.00,,,0.00,520.00,VWS V14.01,2013-02-17 21:00:00,
2013-02-17 15:05:00,55.1,30.6,30.12,South,183,6.0,7.0,39,0.00,,,0.00,504.00,VWS V14.01,2013-02-17 21:05:00,
2013-02-17 15:10:00,55.0,30.5,30.11,South,172,3.0,4.0,39,0.00,,,0.00,492.00,VWS V14.01,2013-02-17 21:10:00,
2013-02-17 15:15:00,54.9,30.4,30.11,SSE,150,2.0,11.0,39,0.00,,,0.00,476.00,VWS V14.01,2013-02-17 21:15:00,
2013-02-17 15:20:00,54.9,30.4,30.11,SSE,167,3.0,6.0,39,0.00,,,0.00,464.00,VWS V14.01,2013-02-17 21:20:00,
2013-02-17 15:25:00,55.0,30.5,30.11,SSE,163,4.0,9.0,39,0.00,,,0.00,448.00,VWS V14.01,2013-02-17 21:25:00,
2013-02-17 15:30:00,55.0,29.9,30.11,SSW,211,4.0,4.0,38,0.00,,,0.00,432.00,VWS V14.01,2013-02-17 21:30:00,
2013-02-17 15:35:00,55.4,30.9,30.11,WNW,294,4.0,7.0,39,0.00,,,0.00,417.00,VWS V14.01,2013-02-17 21:35:00,
2013-02-17 15:40:00,54.9,30.4,30.10,SSE,149,3.0,4.0,39,0.00,,,0.00,401.00,VWS V14.01,2013-02-17 21:40:00,
2013-02-17 15:45:00,55.3,30.8,30.10,South,184,2.0,8.0,39,0.00,,,0.00,385.00,VWS V14.01,2013-02-17 21:45:00,
2013-02-17 15:50:00,54.9,30.4,30.10,SE,144,3.0,4.0,39,0.00,,,0.00,369.00,VWS V14.01,2013-02-17 21:50:00,
2013-02-17 15:55:00,55.1,30.6,30.10,South,171,4.0,10.0,39,0.00,,,0.00,350.00,VWS V14.01,2013-02-17 21:55:00,
2013-02-17 16:00:00,55.2,30.7,30.10,South,176,9.0,9.0,39,0.00,,,0.00,338.00,VWS V14.01,2013-02-17 22:00:00,
2013-02-17 16:05:00,55.0,30.5,30.10,SSE,164,5.0,10.0,39,0.00,,,0.00,320.00,VWS V14.01,2013-02-17 22:05:00,
2013-02-17 16:10:00,55.2,30.7,30.09,SE,142,7.0,7.0,39,0.00,,,0.00,302.00,VWS V14.01,2013-02-17 22:10:00,
2013-02-17 16:15:00,55.0,30.5,30.09,SSE,155,4.0,11.0,39,0.00,,,0.00,287.00,VWS V14.01,2013-02-17 22:15:00,
2013-02-17 16:20:00,55.0,31.1,30.09,SSW,193,6.0,9.0,40,0.00,,,0.00,265.00,VWS V14.01,2013-02-17 22:20:00,
2013-02-17 16:25:00,55.1,31.2,30.09,SSE,166,4.0,9.0,40,0.00,,,0.00,243.00,VWS V14.01,2013-02-17 22:25:00,
2013-02-17 16:30:00,55.2,31.3,30.09,South,184,5.0,5.0,40,0.00,,,0.00,218.00,VWS V14.01,2013-02-17 22:30:00,
2013-02-17 16:35:00,55.2,31.3,30.09,SE,145,7.0,10.0,40,0.00,,,0.00,199.00,VWS V14.01,2013-02-17 22:35:00,
2013-02-17 16:40:00,54.9,31.7,30.09,South,180,0.0,0.0,41,0.00,,,0.00,40.00,VWS V14.01,2013-02-17 22:40:00,
2013-02-17 16:45:00,54.7,30.9,30.08,SE,144,4.0,6.0,40,0.00,,,0.00,35.00,VWS V14.01,2013-02-17 22:45:00,
2013-02-17 16:50:00,54.6,30.8,30.09,South,180,7.0,7.0,40,0.00,,,0.00,33.00,VWS V14.01,2013-02-17 22:50:00,
2013-02-17 16:55:00,54.4,30.0,30.09,SSE,165,13.0,13.0,39,0.00,,,0.00,30.00,VWS V14.01,2013-02-17 22:55:00,
2013-02-17 17:00:00,54.2,30.4,30.09,SSE,164,4.0,8.0,40,0.00,,,0.00,28.00,VWS V14.01,2013-02-17 23:00:00,
2013-02-17 17:05:00,54.1,30.9,30.09,SSE,148,2.0,10.0,41,0.00,,,0.00,26.00,VWS V14.01,2013-02-17 23:05:00,
2013-02-17 17:10:00,53.9,30.8,30.08,SSE,151,4.0,4.0,41,0.00,,,0.00,25.00,VWS V14.01,2013-02-17 23:10:00,
2013-02-17 17:15:00,53.9,31.4,30.09,SSE,165,2.0,6.0,42,0.00,,,0.00,21.00,VWS V14.01,2013-02-17 23:15:00,
2013-02-17 17:20:00,53.9,30.8,30.09,SW,217,2.0,9.0,41,0.00,,,0.00,19.00,VWS V14.01,2013-02-17 23:20:00,
2013-02-17 17:25:00,53.8,31.3,30.08,SSE,150,5.0,9.0,42,0.00,,,0.00,18.00,VWS V14.01,2013-02-17 23:25:00,
2013-02-17 17:30:00,53.6,31.1,30.08,South,176,8.0,8.0,42,0.00,,,0.00,14.00,VWS V14.01,2013-02-17 23:30:00,
2013-02-17 17:35:00,53.4,31.5,30.09,South,169,1.0,11.0,43,0.00,,,0.00,11.00,VWS V14.01,2013-02-17 23:35:00,
2013-02-17 17:40:00,53.2,31.3,30.09,SSE,155,1.0,3.0,43,0.00,,,0.00,7.00,VWS V14.01,2013-02-17 23:40:00,
2013-02-17 17:45:00,53.0,31.1,30.09,South,169,5.0,6.0,43,0.00,,,0.00,5.00,VWS V14.01,2013-02-17 23:45:00,
2013-02-17 17:50:00,52.8,30.9,30.09,SSE,159,3.0,4.0,43,0.00,,,0.00,0.00,VWS V14.01,2013-02-17 23:50:00,
2013-02-17 17:55:00,52.3,31.0,30.09,SE,146,0.0,6.0,44,0.00,,,0.00,0.00,VWS V14.01,2013-02-17 23:55:00,
2013-02-17 18:00:00,51.6,31.0,30.09,SE,145,2.0,2.0,45,0.00,,,0.00,0.00,VWS V14.01,2013-02-18 00:00:00,
2013-02-17 18:05:00,51.2,31.1,30.09,South,178,0.0,7.0,46,0.00,,,0.00,0.00,VWS V14.01,2013-02-18 00:05:00,
2013-02-17 18:10:00,50.7,30.7,30.09,South,178,1.0,3.0,46,0.00,,,0.00,0.00,VWS V14.01,2013-02-18 00:10:00,
2013-02-17 18:15:00,50.7,30.1,30.09,South,175,1.0,4.0,45,0.00,,,0.00,0.00,VWS V14.01,2013-02-18 00:15:00,
2013-02-17 18:20:00,50.6,30.1,30.09,South,169,2.0,2.0,45,0.00,,,0.00,0.00,VWS V14.01,2013-02-18 00:20:00,
2013-02-17 18:25:00,50.4,30.4,30.09,South,169,2.0,4.0,46,0.00,,,0.00,0.00,VWS V14.01,2013-02-18 00:25:00,
2013-02-17 18:30:00,50.2,30.2,30.10,South,171,4.0,4.0,46,0.00,,,0.00,0.00,VWS V14.01,2013-02-18 00:30:00,
2013-02-17 18:35:00,49.9,30.0,30.10,South,171,0.0,5.0,46,0.00,,,0.00,0.00,VWS V14.01,2013-02-18 00:35:00,
2013-02-17 18:40:00,49.4,30.0,30.09,SSE,157,2.0,5.0,47,0.00,,,0.00,0.00,VWS V14.01,2013-02-18 00:40:00,
2013-02-17 18:45:00,49.1,30.3,30.09,SSE,153,0.0,5.0,48,0.00,,,0.00,0.00,VWS V14.01,2013-02-18 00:45:00,
2013-02-17 18:50:00,48.9,30.1,30.10,SSE,156,1.0,2.0,48,0.00,,,0.00,0.00,VWS V14.01,2013-02-18 00:50:00,
2013-02-17 18:55:00,48.7,29.9,30.09,SSE,157,0.0,3.0,48,0.00,,,0.00,0.00,VWS V14.01,2013-02-18 00:55:00,
2013-02-17 19:00:00,48.6,30.3,30.09,South,169,1.0,3.0,49,0.00,,,0.00,0.00,VWS V14.01,2013-02-18 01:00:00,
2013-02-17 19:05:00,48.4,30.1,30.09,South,177,3.0,4.0,49,0.00,,,0.00,0.00,VWS V14.01,2013-02-18 01:05:00,
2013-02-17 19:10:00,48.3,30.0,30.09,SSE,155,1.0,5.0,49,0.00,,,0.00,0.00,VWS V14.01,2013-02-18 01:10:00,
2013-02-17 19:15:00,48.1,29.9,30.09,SSE,155,1.0,5.0,49,0.00,,,0.00,0.00,VWS V14.01,2013-02-18 01:15:00,
2013-02-17 19:20:00,48.0,30.3,30.09,SSE,159,0.0,3.0,50,0.00,,,0.00,0.00,VWS V14.01,2013-02-18 01:20:00,
2013-02-17 19:25:00,47.9,30.2,30.09,SSE,159,2.0,6.0,50,0.00,,,0.00,0.00,VWS V14.01,2013-02-18 01:25:00,
2013-02-17 19:30:00,48.1,29.9,30.09,SSE,149,1.0,4.0,49,0.00,,,0.00,0.00,VWS V14.01,2013-02-18 01:30:00,
2013-02-17 19:35:00,48.1,30.4,30.09,SSE,161,1.0,9.0,50,0.00,,,0.00,0.00,VWS V14.01,2013-02-18 01:35:00,
2013-02-17 19:40:00,47.9,30.2,30.09,South,169,1.0,1.0,50,0.00,,,0.00,0.00,VWS V14.01,2013-02-18 01:40:00,
2013-02-17 19:45:00,47.7,30.0,30.09,South,183,2.0,5.0,50,0.00,,,0.00,0.00,VWS V14.01,2013-02-18 01:45:00,
2013-02-17 19:50:00,47.6,30.4,30.09,South,173,2.0,2.0,51,0.00,,,0.00,0.00,VWS V14.01,2013-02-18 01:50:00,
2013-02-17 19:55:00,47.4,30.2,30.09,SSE,159,0.0,7.0,51,0.00,,,0.00,0.00,VWS V14.01,2013-02-18 01:55:00,
2013-02-17 20:00:00,47.5,30.3,30.09,SSE,161,2.0,5.0,51,0.00,,,0.00,0.00,VWS V14.01,2013-02-18 02:00:00,
2013-02-17 20:05:00,47.5,30.3,30.10,SE,136,1.0,5.0,51,0.00,,,0.00,0.00,VWS V14.01,2013-02-18 02:05:00,
2013-02-17 20:10:00,47.3,30.6,30.10,SSE,153,3.0,5.0,52,0.00,,,0.00,0.00,VWS V14.01,2013-02-18 02:10:00,
2013-02-17 20:15:00,46.9,30.2,30.10,SE,132,2.0,5.0,52,0.00,,,0.00,0.00,VWS V14.01,2013-02-18 02:15:00,
2013-02-17 20:20:00,46.7,30.0,30.09,SE,137,2.0,3.0,52,0.00,,,0.00,0.00,VWS V14.01,2013-02-18 02:20:00,
2013-02-17 20:25:00,46.7,30.5,30.10,SE,146,2.0,5.0,53,0.00,,,0.00,0.00,VWS V14.01,2013-02-18 02:25:00,
2013-02-17 20:30:00,46.6,30.4,30.09,SSE,164,1.0,3.0,53,0.00,,,0.00,0.00,VWS V14.01,2013-02-18 02:30:00,
2013-02-17 20:35:00,46.5,30.3,30.10,SE,138,1.0,6.0,53,0.00,,,0.00,0.00,VWS V14.01,2013-02-18 02:35:00,
2013-02-17 20:40:00,46.3,30.1,30.09,SE,132,4.0,4.0,53,0.00,,,0.00,0.00,VWS V14.01,2013-02-18 02:40:00,
2013-02-17 20:45:00,46.2,30.5,30.09,SE,145,2.0,4.0,54,0.00,,,0.00,0.00,VWS V14.01,2013-02-18 02:45:00,
2013-02-17 20:50:00,46.2,30.5,30.09,SSE,155,2.0,3.0,54,0.00,,,0.00,0.00,VWS V14.01,2013-02-18 02:50:00,
2013-02-17 20:56:00,46.3,30.6,30.09,SSE,157,2.0,8.0,54,0.00,,,0.00,0.00,VWS V14.01,2013-02-18 02:56:00,
2013-02-17 21:01:00,46.3,30.6,30.09,SSE,159,3.0,4.0,54,0.00,,,0.00,0.00,VWS V14.01,2013-02-18 03:01:00,
2013-02-17 21:06:00,46.4,30.7,30.10,South,171,2.0,7.0,54,0.00,,,0.00,0.00,VWS V14.01,2013-02-18 03:06:00,
2013-02-17 21:11:00,46.4,30.7,30.09,South,172,2.0,4.0,54,0.00,,,0.00,0.00,VWS V14.01,2013-02-18 03:11:00,
2013-02-17 21:16:00,46.3,30.6,30.09,SSE,166,0.0,5.0,54,0.00,,,0.00,0.00,VWS V14.01,2013-02-18 03:16:00,
2013-02-17 21:21:00,46.1,30.4,30.09,SSE,167,1.0,3.0,54,0.00,,,0.00,0.00,VWS V14.01,2013-02-18 03:21:00,
2013-02-17 21:26:00,46.1,30.4,30.09,SSE,156,5.0,9.0,54,0.00,,,0.00,0.00,VWS V14.01,2013-02-18 03:26:00,
2013-02-17 21:31:00,46.1,30.4,30.09,SSW,192,4.0,7.0,54,0.00,,,0.00,0.00,VWS V14.01,2013-02-18 03:31:00,
2013-02-17 21:36:00,46.2,30.5,30.09,SSE,159,6.0,11.0,54,0.00,,,0.00,0.00,VWS V14.01,2013-02-18 03:36:00,
2013-02-17 21:41:00,46.3,30.6,30.09,SSE,159,0.0,5.0,54,0.00,,,0.00,0.00,VWS V14.01,2013-02-18 03:41:00,
2013-02-17 21:46:00,46.2,30.5,30.09,SE,144,2.0,7.0,54,0.00,,,0.00,0.00,VWS V14.01,2013-02-18 03:46:00,
2013-02-17 21:51:00,46.2,30.5,30.09,SSE,167,6.0,10.0,54,0.00,,,0.00,0.00,VWS V14.01,2013-02-18 03:51:00,
2013-02-17 21:56:00,46.2,30.5,30.08,SSE,167,0.0,10.0,54,0.00,,,0.00,0.00,VWS V14.01,2013-02-18 03:56:00,
2013-02-17 22:01:00,46.3,30.6,30.09,SSE,165,4.0,4.0,54,0.00,,,0.00,0.00,VWS V14.01,2013-02-18 04:01:00,
2013-02-17 22:06:00,46.3,31.0,30.09,SSE,168,3.0,10.0,55,0.00,,,0.00,0.00,VWS V14.01,2013-02-18 04:06:00,
2013-02-17 22:11:00,46.2,30.9,30.08,South,173,9.0,10.0,55,0.00,,,0.00,0.00,VWS V14.01,2013-02-18 04:11:00,
2013-02-17 22:16:00,46.3,31.0,30.08,South,171,1.0,10.0,55,0.00,,,0.00,0.00,VWS V14.01,2013-02-18 04:16:00,
2013-02-17 22:21:00,46.3,31.0,30.08,SSW,196,2.0,10.0,55,0.00,,,0.00,0.00,VWS V14.01,2013-02-18 04:21:00,
2013-02-17 22:26:00,46.5,31.2,30.08,SSE,163,5.0,11.0,55,0.00,,,0.00,0.00,VWS V14.01,2013-02-18 04:26:00,
2013-02-17 22:31:00,46.5,31.2,30.08,South,183,1.0,8.0,55,0.00,,,0.00,0.00,VWS V14.01,2013-02-18 04:31:00,
2013-02-17 22:36:00,46.7,31.4,30.08,SSW,203,2.0,12.0,55,0.00,,,0.00,0.00,VWS V14.01,2013-02-18 04:36:00,
2013-02-17 22:41:00,46.7,31.4,30.08,South,169,3.0,6.0,55,0.00,,,0.00,0.00,VWS V14.01,2013-02-18 04:41:00,
2013-02-17 22:46:00,46.8,31.5,30.08,South,173,8.0,11.0,55,0.00,,,0.00,0.00,VWS V14.01,2013-02-18 04:46:00,
2013-02-17 22:51:00,46.9,31.6,30.08,SSW,200,6.0,8.0,55,0.00,,,0.00,0.00,VWS V14.01,2013-02-18 04:51:00,
2013-02-17 22:56:00,47.0,31.7,30.08,South,175,5.0,12.0,55,0.00,,,0.00,0.00,VWS V14.01,2013-02-18 04:56:00,
2013-02-17 23:00:00,47.0,31.7,30.08,South,170,3.0,12.0,55,0.00,,,0.00,0.00,VWS V14.01,2013-02-18 05:00:00,
2013-02-17 23:01:00,47.0,31.7,30.08,South,173,5.0,8.0,55,0.00,,,0.00,0.00,VWS V14.01,2013-02-18 05:01:00,
2013-02-17 23:06:00,47.2,31.4,30.08,SSE,168,7.0,13.0,54,0.00,,,0.00,0.00,VWS V14.01,2013-02-18 05:06:00,
2013-02-17 23:11:00,47.4,31.6,30.07,South,172,2.0,7.0,54,0.00,,,0.00,0.00,VWS V14.01,2013-02-18 05:11:00,
2013-02-17 23:16:00,47.4,31.6,30.07,South,173,3.0,13.0,54,0.00,,,0.00,0.00,VWS V14.01,2013-02-18 05:16:00,
2013-02-17 23:21:00,47.4,31.6,30.07,SSW,196,2.0,5.0,54,0.00,,,0.00,0.00,VWS V14.01,2013-02-18 05:21:00,
2013-02-17 23:26:00,47.4,31.6,30.07,SSE,160,6.0,12.0,54,0.00,,,0.00,0.00,VWS V14.01,2013-02-18 05:26:00,
2013-02-17 23:31:00,47.3,32.0,30.07,South,187,8.0,8.0,55,0.00,,,0.00,0.00,VWS V14.01,2013-02-18 05:31:00,
2013-02-17 23:36:00,47.2,31.9,30.07,SSW,204,1.0,11.0,55,0.00,,,0.00,0.00,VWS V14.01,2013-02-18 05:36:00,
2013-02-17 23:41:00,47.2,31.9,30.07,South,187,4.0,12.0,55,0.00,,,0.00,0.00,VWS V14.01,2013-02-18 05:41:00,
2013-02-17 23:46:00,47.3,32.0,30.07,South,190,6.0,12.0,55,0.00,,,0.00,0.00,VWS V14.01,2013-02-18 05:46:00,
2013-02-17 23:51:00,47.3,32.4,30.07,South,173,2.0,8.0,56,0.00,,,0.00,0.00,VWS V14.01,2013-02-18 05:51:00,
2013-02-17 23:56:00,47.3,32.4,30.06,SSW,200,4.0,11.0,56,0.00,,,0.00,0.00,VWS V14.01,2013-02-18 05:56:00,